Temperature
8 6 6 6 6 7 7 7 7 8 8 7 7 7 8 8 8 7 7 7 7 6 5 5 5 5 5 5 6 6 6 6 6 7 7 7 7 7 7 8 8 8 9 9
7 5 6 6 7 6 6 6 6 7 7 7 6 6 7 7 7 7 7 7 6 6 5 5 4 4 4 5 5 5 6 6 6 6 6 6 6 6 7 7 8 8 8 8
6 5 6 6 6 5 5 5 5 5 6 6 5 5 7 7 7 7 7 6 6 5 5 4 4 4 4 4 4 4 5 5 5 6 6 6 6 6 6 7 7 8 8 8
5 5 5 5 5 4 4 5 5 4 4 4 5 4 6 6 6 6 6 6 5 5 4 4 4 4 4 4 4 4 4 4 5 5 5 5 5 5 6 6 7 7 7 7
4 4 4 4 4 4 4 4 4 4 4 3 4 3 5 6 5 5 5 5 4 4 4 3 3 3 3 3 3 4 4 4 4 4 5 5 5 5 5 5 6 6 7 7
3 4 3 3 3 4 3 3 3 3 3 3 4 4 4 4 4 5 4 4 4 3 3 3 3 3 3 3 3 3 3 3 4 4 4 4 4 4 4 5 5 5 6 6
3 3 3 3 3 3 2 2 3 3 3 4 5 4 4 4 4 3 3 3 3 3 2 2 2 2 3 3 2 3 3 3 3 3 4 4 4 4 4 4 4 5 5 6
3 3 2 2 2 1 2 2 3 3 4 4 4 3 3 3 4 3 3 2 2 2 2 1 1 1 2 2 2 2 2 2 3 3 3 3 3 3 4 4 4 4 5 5
3 2 2 2 2 2 2 2 2 1 2 2 3 4 4 3 2 2 2 1 1 1 1 1 1 1 1 1 2 2 2 2 2 2 3 3 3 3 3 3 3 4 4 5
1 1 1 2 2 1 1 1 1 1 2 2 4 4 3 1 1 1 1 1 1 1 0 1 1 1 1 1 1 1 2 2 2 2 2 2 2 3 3 3 3 3 4 4
1 -0 1 1 -0 0 -0 0 0 1 1 2 2 3 2 1 1 0 0 1 0 0 0 0 0 0 0 0 1 1 1 1 1 1 2 2 2 2 2 2 3 3 3 3
0 -0 -0 1 0 0 -0 -0 -0 -0 0 1 1 1 1 1 1 1 0 0 -0 -0 -0 -0 -0 -0 0 0 0 0 1 1 1 1 1 1 2 2 2 2 2 2 3 3
-1 -1 -1 0 -0 -1 -1 -1 -1 -1 -1 -0 0 1 1 0 0 0 -0 -0 -1 -1 -1 -1 -1 -1 -0 -0 -0 -0 0 0 0 1 1 1 1 1 1 1 2 2 2 3
-0 -2 -1 0 0 -1 -2 -1 -2 -2 -2 -1 -1 -0 -0 -1 -1 -1 -1 -1 -1 -1 -2 -2 -2 -2 -1 -1 -1 -1 -0 -0 0 0 0 1 1 1 1 1 1 2 2 2
-2 -2 -2 -2 -1 -1 -1 -2 -2 -3 -2 -2 -1 -1 -1 -1 -1 -1 -1 -2 -2 -2 -2 -3 -3 -3 -2 -2 -1 -1 -1 -1 -1 -0 -0 0 0 0 1 1 1 1 1 2
-3 -3 -3 -3 -2 -1 -1 -1 -2 -2 -2 -2 -2 -2 -1 -1 -1 -2 -2 -3 -3 -3 -3 -3 -3 -3 -3 -3 -2 -2 -2 -1 -1 -1 -1 -0 -0 0 0 0 1 1 1 1
-3 -4 -3 -2 -2 -2 -2 -2 -2 -3 -3 -3 -3 -3 -2 -3 -3 -3 -3 -3 -3 -3 -4 -4 -4 -4 -4 -3 -3 -3 -2 -2 -2 -2 -1 -1 -1 -0 -0 0 0 0 1 1
-4 -4 -4 -3 -3 -3 -2 -2 -2 -3 -4 -4 -4 -3 -3 -3 -3 -3 -3 -3 -4 -4 -4 -4 -4 -4 -4 -4 -3 -3 -3 -2 -2 -2 -2 -1 -1 -1 -0 -0 -0 0 0 1
-4 -4 -4 -3 -3 -3 -2 -3 -4 -4 -4 -4 -4 -4 -4 -3 -3 -3 -3 -4 -4 -5 -5 -5 -4 -4 -4 -4 -4 -3 -3 -3 -3 -2 -2 -2 -2 -1 -1 -1 -0 -0 -0 0
-5 -5 -5 -4 -4 -3 -2 -4 -4 -4 -4 -4 -4 -5 -4 -5 -5 -5 -4 -5 -5 -5 -5 -5 -5 -5 -4 -4 -4 -4 -4 -3 -3 -3 -3 -2 -2 -2 -1 -1 -1 -1 -0 -0
-6 -6 -5 -5 -4 -4 -4 -5 -4 -4 -4 -4 -4 -4 -5 -6 -6 -5 -5 -5 -5 -5 -5 -5 -5 -5 -5 -5 -5 -4 -4 -4 -4 -3 -3 -3 -2 -2 -2 -1 -1 -1 -1 -1
-6 -6 -6 -5 -5 -4 -5 -5 -6 -5 -4 -5 -5 -5 -5 -6 -6 -6 -6 -6 -6 -6 -5 -5 -5 -5 -5 -5 -5 -5 -5 -4 -4 -4 -3 -3 -3 -2 -2 -2 -2 -1 -1 -1
-5 -5 -5 -5 -5 -4 -4 -5 -5 -5 -5 -5 -5 -6 -6 -6 -6 -6 -6 -6 -6 -6 -6 -6 -6 -6 -6 -5 -5 -5 -5 -5 -4 -4 -4 -3 -3 -3 -3 -2 -2 -2 -2 -1
-5 -6 -6 -6 -5 -4 -4 -4 -5 -5 -5 -5 -6 -6 -6 -7 -7 -7 -7 -7 -7 -6 -6 -6 -6 -6 -6 -6 -6 -6 -6 -5 -5 -5 -4 -4 -4 -3 -3 -3 -3 -2 -2 -2
-5 -7 -7 -7 -7 -5 -4 -4 -5 -5 -5 -6 -6 -6 -6 -7 -7 -7 -7 -7 -7 -7 -7 -7 -7 -7 -7 -6 -6 -6 -6 -6 -6 -5 -5 -4 -4 -4 -4 -3 -3 -3 -3 -3
-6 -7 -7 -6 -5 -6 -5 -5 -5 -6 -6 -6 -6 -6 -7 -7 -7 -7 -7 -7 -7 -7 -7 -7 -7 -7 -7 -7 -7 -6 -6 -6 -6 -6 -5 -5 -5 -5 -4 -4 -4 -3 -3 -3
Wind_Speed
1 1 2 3 4 5 6 7 10 8 4 6 10 13 11 8 7 7 6 4 3 3 2 2 1 1 1 1 1 0 1 1 0 0 0 0 1 1 1 1 1 1 1 1
1 3 4 4 4 5 7 9 10 8 5 6 10 14 12 9 7 5 4 4 4 3 2 1 0 0 1 1 1 1 1 1 0 0 1 2 2 2 1 0 1 2 2 2
3 1 4 4 3 5 7 7 7 9 10 8 8 10 7 4 4 4 4 3 3 3 3 2 1 1 2 2 2 2 1 2 1 1 0 1 1 1 1 1 1 1 2 3
2 2 4 4 4 4 6 4 7 9 7 5 2 5 6 5 5 4 3 3 3 2 2 2 1 2 2 3 2 2 2 2 2 1 1 1 2 2 2 2 2 1 1 2
1 2 3 3 4 4 5 7 8 9 8 7 5 5 6 4 4 3 3 2 1 1 1 1 2 3 2 2 2 2 2 2 1 1 2 2 2 2 2 1 2 2 1 1
3 2 2 2 3 4 5 6 7 6 4 6 7 6 4 3 3 2 2 1 1 1 1 2 3 2 2 1 1 2 2 2 2 2 2 3 2 2 2 2 3 2 2 1
2 2 1 1 3 2 3 2 2 2 4 6 2 3 4 1 2 2 2 2 2 2 2 3 3 2 2 2 2 2 3 3 3 3 3 3 3 3 3 3 3 2 2 2
3 3 2 1 0 2 3 2 1 3 4 3 2 5 2 2 3 3 3 2 3 3 3 3 3 3 3 3 3 3 4 3 3 3 3 3 3 3 3 3 3 3 3 3
3 3 1 1 1 2 2 1 1 2 4 4 5 3 1 4 5 4 3 4 4 4 4 5 4 4 3 3 4 4 4 4 3 3 3 3 3 3 3 3 3 3 3 3
2 4 2 0 1 1 2 2 0 1 2 5 5 4 2 1 3 3 4 4 4 5 6 6 5 4 4 3 4 4 4 4 3 3 3 3 3 4 3 3 3 3 3 3
2 2 2 1 2 2 1 1 2 3 3 3 4 3 2 2 2 2 4 5 5 5 6 6 6 5 4 3 3 4 4 3 3 3 3 4 4 4 4 4 4 4 4 4
1 2 4 3 1 0 2 2 3 2 4 4 4 4 1 4 3 3 4 5 5 5 6 6 6 5 5 4 4 4 4 4 4 3 3 4 3 3 4 4 4 4 4 4
0 1 3 2 0 0 1 3 3 3 3 4 4 5 1 4 4 5 5 6 6 7 7 6 6 6 6 6 5 4 4 4 4 3 3 3 3 3 4 4 4 4 4 4
1 3 5 6 4 2 5 5 4 4 4 5 7 10 8 7 7 6 7 7 7 7 7 7 7 7 7 7 6 5 5 5 5 4 4 4 4 4 4 4 4 4 4 4
1 4 5 8 9 7 8 9 7 8 8 8 8 9 10 8 7 6 6 6 7 7 7 7 8 8 8 8 8 6 6 6 6 4 4 5 4 4 4 4 5 4 4 5
1 3 4 7 7 7 10 11 9 9 8 10 11 12 8 7 6 5 6 7 7 7 7 8 8 9 9 9 9 9 7 7 6 5 5 4 4 4 5 5 4 4 4 4
2 2 2 4 4 6 8 8 8 6 6 6 9 7 6 7 7 6 7 7 7 7 7 8 8 8 8 8 8 8 8 8 6 5 5 4 3 3 4 4 4 4 4 3
3 2 3 4 4 6 6 0 2 3 4 4 5 6 6 7 8 5 5 5 7 8 7 8 8 8 8 8 8 8 8 7 6 5 5 5 4 3 3 3 4 4 3 3
3 3 3 3 5 7 4 0 1 1 4 3 4 6 7 7 6 3 4 5 6 7 7 7 7 7 7 7 7 8 8 7 6 6 6 6 5 4 3 4 4 3 3 4
1 2 3 4 5 5 3 0 1 0 3 3 2 4 6 6 4 5 7 8 8 7 6 7 7 7 7 7 7 7 7 7 7 7 7 7 5 4 4 4 4 4 3 4
2 3 5 6 6 6 2 0 1 1 4 3 3 3 4 3 4 7 8 8 7 7 7 7 7 7 7 7 7 7 7 7 7 7 7 6 6 5 4 4 3 3 3 3
5 4 5 4 5 6 1 2 2 3 3 3 3 3 4 6 7 8 8 8 8 8 8 7 7 7 7 6 7 8 8 8 8 7 7 6 6 5 4 3 3 2 2 2
6 5 4 5 6 2 3 3 2 1 3 4 4 4 5 6 8 8 7 7 7 7 8 7 7 7 7 6 6 7 9 9 8 8 7 7 6 4 3 3 2 2 1 1
3 2 3 5 6 4 3 3 3 3 4 5 5 5 5 6 8 8 7 7 7 7 7 6 7 7 7 7 7 7 8 8 8 7 7 6 5 5 4 3 2 1 1 1
3 3 3 6 6 5 4 3 4 4 4 5 5 5 5 6 8 7 7 7 6 7 6 6 6 7 8 7 7 8 7 7 7 7 6 5 4 4 3 3 2 2 2 1
3 4 5 5 3 3 5 4 4 5 5 6 6 6 5 5 6 7 7 6 6 6 6 7 7 7 7 7 7 7 7 7 7 7 6 4 4 4 3 3 3 4 4 4
Wind_Direction
178 239 248 265 249 266 287 281 282 287 297 289 267 269 267 254 247 242 233 227 209 202 184 160 148 129 297 278 176 227 321 320 55 97 108 256 264 269 227 174 179 184 187 189
230 242 280 293 296 286 281 281 284 290 302 289 275 272 265 250 234 224 224 216 200 197 166 158 190 172 273 208 190 219 292 298 251 228 235 235 249 248 249 195 179 192 201 203
241 309 321 289 289 285 269 269 289 298 305 266 265 275 231 218 203 200 210 206 193 205 183 192 219 257 245 212 199 234 264 287 268 232 256 305 299 272 256 231 214 221 207 200
276 293 300 293 275 282 272 301 294 292 294 283 252 279 248 210 205 195 200 195 191 215 202 202 236 287 260 222 205 213 235 272 271 231 226 221 238 242 260 247 232 227 207 201
279 322 312 292 296 290 280 303 282 275 273 278 243 242 261 192 207 197 176 171 141 197 232 255 265 275 268 229 212 211 230 258 266 259 234 225 242 249 265 256 232 212 194 186
258 283 319 317 311 294 295 290 272 255 255 258 230 216 264 205 217 183 137 80 30 335 302 290 291 279 283 272 234 227 236 254 248 250 251 241 232 230 233 252 241 218 211 218
253 207 136 344 302 288 314 319 319 282 233 243 189 216 250 150 100 93 80 41 357 350 329 310 304 296 290 293 283 250 242 248 250 247 247 244 236 221 222 230 237 234 220 222
296 273 135 81 4 299 275 276 259 270 270 302 250 232 230 82 86 73 66 57 19 356 336 314 312 307 295 297 298 276 246 247 243 243 249 250 245 231 232 234 232 230 229 222
307 274 57 15 309 309 296 269 334 287 289 278 254 240 91 51 47 49 46 28 359 345 339 327 316 304 299 298 296 285 260 250 247 244 247 245 242 243 244 242 240 232 229 229
318 282 254 219 248 247 300 321 329 233 283 277 269 248 266 7 6 8 17 0 342 347 340 333 323 309 294 287 286 293 270 253 254 244 240 244 242 246 244 239 243 238 233 228
299 255 264 217 210 216 186 233 254 261 260 271 284 282 30 96 62 8 346 346 339 336 331 330 322 312 304 301 298 298 288 271 262 248 239 242 247 250 241 237 244 246 240 230
293 281 268 245 187 13 193 214 196 217 266 250 271 275 49 72 60 19 341 336 333 336 335 330 327 326 329 322 308 301 306 274 261 256 246 242 249 250 247 247 248 247 245 243
347 242 295 286 293 46 260 236 227 237 263 250 247 264 1 12 3 354 343 338 338 340 342 342 342 341 337 327 319 319 315 299 279 267 256 253 254 254 254 255 258 252 249 247
278 236 224 245 277 283 271 262 234 215 232 254 244 268 296 321 327 332 334 332 332 337 340 343 341 340 336 329 327 329 325 316 299 281 265 255 255 258 261 264 266 263 252 245
283 256 254 268 281 280 265 261 241 228 234 246 268 278 289 308 311 316 325 327 332 334 338 340 341 338 332 334 336 331 327 324 311 289 273 264 261 263 266 268 269 268 258 251
231 265 285 273 263 265 270 263 249 245 250 258 273 280 292 306 319 328 333 330 326 328 335 338 339 335 332 333 331 332 330 326 318 304 288 281 263 260 261 260 264 266 260 256
209 223 265 271 288 297 272 248 227 230 232 237 255 272 322 329 328 326 321 321 321 327 332 332 329 326 326 327 326 325 321 323 321 316 311 310 299 266 258 260 261 258 259 258
197 216 245 278 305 254 252 77 173 223 260 247 263 295 320 315 309 306 312 321 326 329 329 327 324 323 324 324 324 321 320 322 321 322 320 313 306 295 281 271 265 264 267 258
211 207 243 259 268 272 267 14 77 243 289 277 273 299 317 329 320 319 355 351 329 327 323 318 316 316 319 322 323 322 324 325 326 324 320 312 305 299 296 285 277 276 273 263
262 213 227 242 254 255 269 49 23 62 283 331 327 313 328 349 333 313 345 342 332 327 326 324 323 321 323 324 326 324 323 326 323 320 315 312 307 299 292 287 282 278 269 259
181 208 222 236 249 264 270 288 42 218 270 336 341 323 326 313 280 302 325 329 329 325 325 324 323 323 322 325 328 323 323 321 317 317 318 316 310 301 293 292 289 274 267 261
192 198 209 214 231 254 142 116 183 250 322 327 321 318 306 300 303 313 318 323 327 326 326 326 322 318 320 327 331 325 323 321 324 324 323 323 314 307 309 301 296 285 268 252
209 206 209 213 226 244 173 201 227 287 296 299 305 307 304 301 304 309 313 316 317 319 321 321 317 316 323 330 332 322 321 326 328 328 326 325 322 316 312 301 298 306 302 283
224 190 242 268 270 270 244 244 255 250 259 280 284 287 289 289 295 302 306 310 313 315 316 318 321 320 321 325 328 321 322 327 327 326 324 324 327 326 327 321 314 315 311 312
232 181 234 258 279 302 278 267 283 287 278 279 283 278 276 282 293 296 301 305 310 315 316 318 317 315 315 320 324 324 326 328 327 323 320 322 326 323 327 330 320 314 300 300
215 205 216 243 260 260 290 317 314 295 288 285 289 295 289 276 284 294 296 299 305 310 315 318 317 317 318 322 324 326 328 329 325 324 326 326 328 328 331 337 342 340 339 342
Height
1505 1508 1508 1507 1506 1506 1503 1503 1500 1496 1495 1496 1493 1489 1485 1484 1485 1485 1486 1487 1487 1489 1490 1491 1492 1493 1493 1493 1493 1494 1495 1496 1497 1498 1499 1500 1501 1502 1504 1506 1508 1510 1513 1515
1506 1509 1508 1506 1506 1505 1504 1504 1500 1494 1493 1494 1492 1486 1480 1479 1480 1481 1482 1483 1485 1487 1488 1489 1489 1490 1490 1490 1490 1491 1492 1493 1494 1495 1496 1497 1498 1499 1501 1503 1505 1507 1509 1511
1507 1509 1507 1506 1506 1507 1505 1505 1502 1501 1496 1491 1492 1485 1476 1476 1477 1478 1480 1482 1483 1485 1486 1487 1487 1488 1488 1487 1488 1489 1489 1490 1491 1492 1493 1494 1495 1496 1497 1499 1501 1503 1505 1507
1507 1508 1507 1506 1506 1507 1505 1503 1503 1502 1502 1497 1492 1494 1476 1475 1475 1476 1478 1480 1482 1483 1484 1484 1484 1484 1485 1485 1486 1486 1487 1487 1488 1489 1489 1490 1491 1492 1493 1495 1497 1499 1501 1503
1509 1508 1508 1508 1507 1508 1506 1504 1502 1501 1500 1500 1493 1497 1481 1474 1475 1476 1478 1479 1480 1481 1482 1482 1483 1482 1482 1483 1483 1484 1484 1484 1485 1486 1486 1487 1488 1488 1490 1491 1493 1495 1497 1499
1510 1509 1509 1509 1508 1507 1506 1504 1501 1499 1500 1501 1488 1492 1482 1477 1476 1475 1477 1478 1479 1480 1481 1481 1481 1480 1480 1480 1480 1481 1481 1481 1481 1482 1483 1483 1484 1485 1486 1487 1489 1490 1492 1494
1508 1508 1509 1510 1509 1508 1509 1508 1504 1501 1498 1490 1482 1487 1484 1476 1475 1476 1477 1478 1479 1479 1479 1479 1479 1478 1477 1477 1477 1477 1477 1477 1478 1479 1479 1480 1480 1481 1482 1483 1484 1486 1488 1490
1510 1509 1510 1510 1511 1512 1510 1509 1510 1506 1495 1487 1485 1486 1480 1476 1475 1476 1477 1478 1478 1479 1479 1479 1478 1477 1475 1474 1474 1474 1474 1474 1475 1475 1475 1476 1477 1478 1479 1480 1481 1482 1484 1486
1513 1511 1510 1510 1510 1511 1510 1510 1510 1511 1505 1502 1486 1477 1476 1476 1476 1477 1478 1479 1479 1478 1478 1477 1476 1474 1473 1472 1472 1472 1471 1471 1471 1471 1472 1472 1473 1474 1475 1476 1477 1478 1480 1482
1517 1518 1511 1510 1510 1511 1512 1511 1513 1511 1509 1499 1483 1478 1482 1481 1480 1479 1479 1479 1479 1478 1477 1475 1474 1472 1471 1470 1470 1468 1468 1468 1468 1468 1468 1469 1470 1471 1471 1472 1473 1474 1476 1478
1518 1520 1514 1512 1512 1512 1514 1514 1512 1510 1506 1504 1495 1489 1482 1482 1481 1481 1480 1480 1479 1478 1476 1474 1473 1471 1469 1468 1467 1466 1466 1464 1464 1465 1465 1465 1466 1467 1467 1468 1468 1470 1471 1473
1518 1518 1516 1510 1510 1509 1510 1512 1513 1516 1512 1505 1503 1496 1482 1481 1481 1482 1481 1480 1479 1477 1475 1473 1470 1468 1467 1466 1465 1463 1462 1462 1461 1461 1461 1462 1462 1462 1463 1463 1464 1466 1467 1468
1519 1520 1518 1510 1513 1514 1513 1511 1512 1513 1513 1507 1503 1495 1483 1482 1482 1482 1481 1480 1478 1476 1474 1471 1469 1466 1465 1464 1462 1461 1460 1459 1458 1458 1457 1457 1458 1458 1458 1459 1460 1461 1462 1463
1518 1520 1519 1513 1507 1510 1512 1510 1511 1513 1513 1506 1498 1490 1485 1484 1483 1482 1481 1479 1477 1475 1473 1470 1467 1465 1463 1461 1460 1458 1456 1456 1455 1454 1453 1453 1453 1454 1454 1455 1455 1456 1457 1458
1518 1519 1515 1511 1508 1507 1507 1506 1507 1509 1506 1504 1494 1490 1486 1485 1484 1482 1481 1479 1476 1474 1471 1469 1466 1463 1461 1459 1457 1456 1454 1452 1451 1450 1449 1449 1449 1450 1450 1450 1451 1452 1453 1454
1518 1519 1515 1512 1506 1505 1502 1499 1500 1501 1501 1498 1494 1490 1485 1483 1482 1481 1479 1478 1476 1473 1471 1468 1465 1463 1460 1457 1455 1453 1451 1449 1448 1446 1445 1444 1444 1445 1446 1447 1447 1448 1449 1449
1518 1519 1517 1510 1504 1502 1501 1495 1495 1496 1494 1495 1494 1490 1485 1484 1482 1480 1478 1477 1475 1472 1470 1467 1465 1462 1459 1456 1454 1451 1449 1447 1445 1444 1442 1441 1441 1441 1442 1442 1443 1444 1444 1445
1517 1518 1516 1511 1509 1510 1493 1490 1489 1491 1491 1490 1489 1487 1485 1484 1481 1479 1477 1476 1473 1471 1468 1465 1463 1460 1458 1455 1452 1449 1447 1445 1443 1441 1440 1439 1438 1437 1437 1438 1438 1439 1440 1440
1513 1516 1515 1512 1509 1499 1490 1491 1491 1492 1491 1488 1487 1485 1484 1482 1479 1477 1476 1474 1472 1470 1467 1464 1461 1459 1456 1453 1450 1447 1445 1443 1441 1439 1437 1436 1435 1434 1434 1434 1434 1435 1436 1436
1513 1514 1516 1511 1509 1503 1492 1492 1490 1492 1492 1486 1485 1484 1483 1481 1482 1478 1475 1472 1470 1468 1465 1463 1460 1457 1454 1451 1449 1446 1443 1441 1439 1437 1435 1434 1433 1432 1431 1431 1431 1432 1432 1432
1515 1515 1515 1511 1507 1498 1493 1491 1491 1495 1491 1487 1485 1484 1484 1483 1482 1479 1474 1472 1469 1467 1464 1461 1458 1455 1452 1450 1447 1444 1441 1439 1437 1435 1433 1431 1431 1430 1429 1429 1429 1429 1429 1429
1510 1511 1510 1507 1506 1500 1492 1491 1493 1491 1487 1486 1485 1484 1482 1480 1478 1475 1473 1470 1467 1464 1461 1459 1456 1453 1450 1448 1446 1442 1440 1437 1435 1433 1431 1429 1428 1427 1426 1426 1426 1426 1426 1425
1502 1502 1500 1500 1497 1490 1488 1488 1488 1487 1486 1484 1483 1481 1480 1477 1475 1473 1470 1468 1465 1462 1459 1456 1454 1451 1448 1446 1444 1441 1438 1435 1433 1431 1429 1428 1426 1425 1425 1424 1423 1423 1423 1422
1497 1496 1497 1495 1489 1486 1486 1486 1485 1485 1483 1482 1481 1479 1477 1475 1473 1470 1468 1465 1463 1460 1457 1454 1452 1449 1446 1444 1441 1439 1436 1434 1431 1429 1427 1425 1424 1423 1423 1422 1422 1421 1421 1420
1493 1495 1494 1493 1488 1485 1483 1483 1483 1482 1480 1479 1477 1476 1474 1472 1470 1468 1465 1463 1460 1458 1455 1452 1449 1447 1444 1442 1439 1437 1434 1432 1429 1427 1425 1423 1422 1422 1421 1420 1420 1420 1420 1420
1489 1491 1491 1488 1485 1484 1482 1481 1480 1479 1477 1476 1474 1472 1471 1470 1467 1465 1462 1460 1458 1455 1453 1449 1447 1444 1442 1439 1437 1435 1432 1430 1427 1425 1423 1422 1421 1420 1419 1418 1418 1418 1419 1418